sat.trackr.live / text

‹ back to catalog

STARLINK-1695

NORAD 46329 · 2020-062E

PAYLOAD ACTIVE UNKNOWN

§ Identity

Operator
Country
US
Launch date
2020-09-03
Launch site
AFETR
Launch vehicle
Mass (kg)
RCS (m²)

Purposes: comms

External: N2YO · Heavens-Above · Gunter

§ Orbital elements

Epoch: 2026-05-24T15:41:16.793376Z

Period
91.77 min
Inclination
53.0435°
Eccentricity
0.0002348
Mean motion
15.69081118 rev/d
Perigee alt
359.9 km
Apogee alt
363.1 km
Semi-major
6,739.7 km
B*
7.1119e-4
RAAN
325.1673°
Arg perigee
124.1379°
Mean anomaly
235.9860°
Rev number
31,674

§ Raw data

STARLINK-16951 46329U 20062E   26144.65366659  .00084236  00000+0  71119-3 0  99912 46329  53.0435 325.1673 0002348 124.1379 235.9860 15.69081118316741

JSON: /api/v1/satellites/46329 · /tle

For live sub-satellite position, see the globe view (requires WebGL).

§ Visibility from observer

Set your observer location to see the next 7 days of passes ≥ 10°. The values pass through the URL so the page stays shareable.

No JS? Fill the form by hand. The geolocation button needs JavaScript.